Theta_e
347 347 347 348 349 349 347 344 343 343 343 340 342 343 343 343 344 345 347 347 347 350 347 348 346 346 347 348 349 349 347 349 347 345 349 347 346 344 342 338 337 335 334
346 346 346 347 348 348 346 345 344 343 342 342 338 339 341 341 343 345 347 346 346 347 349 347 346 347 347 348 348 349 348 347 347 345 348 348 345 343 339 335 334 334 333
345 346 346 346 347 348 346 346 345 344 341 337 339 337 339 340 342 345 345 345 345 346 347 347 348 349 349 348 348 348 348 350 347 348 347 344 341 343 337 337 334 332 333
345 346 345 345 345 346 346 347 345 345 343 335 333 333 334 338 341 344 344 345 345 345 347 348 348 347 347 348 350 349 348 350 345 345 343 341 339 337 341 336 335 330 331
345 345 345 345 346 346 346 347 345 345 345 338 333 332 333 336 338 341 346 345 345 347 347 348 349 349 350 351 350 349 348 348 345 343 337 337 331 332 336 332 335 329 330
346 345 345 346 346 346 346 347 345 346 346 343 339 335 330 335 339 346 347 345 346 347 348 348 346 349 351 350 349 351 350 349 344 337 328 328 333 333 331 330 332 331 329
346 346 345 346 346 346 346 347 345 346 346 346 344 336 330 334 341 347 347 345 346 348 348 346 346 350 352 350 350 352 352 349 344 331 323 322 321 319 327 327 330 329 330
347 347 347 345 346 346 346 346 346 345 346 347 347 341 332 332 341 344 345 347 344 348 347 348 349 353 351 350 352 355 353 347 344 327 320 318 313 308 309 315 325 325 327
347 348 348 347 346 346 346 346 346 346 346 347 348 348 337 331 333 337 344 346 346 347 347 346 352 353 350 352 352 356 354 348 344 325 318 313 309 308 308 308 311 322 322
347 348 348 348 347 347 347 347 347 346 346 347 348 348 347 335 331 334 335 341 345 346 346 344 347 350 349 353 353 355 356 348 345 324 315 309 308 307 307 307 309 311 317
345 346 348 348 346 347 347 347 347 347 346 346 348 348 348 347 335 331 331 333 336 341 344 344 342 351 350 354 355 352 356 350 345 325 312 308 307 306 305 306 310 313 316
342 345 347 347 348 348 347 347 348 347 347 346 347 348 348 348 347 334 329 331 334 337 342 342 338 346 350 354 357 351 356 350 346 327 312 307 306 305 307 317 319 319 319
346 346 346 347 348 347 346 346 347 347 347 347 347 348 348 348 348 345 330 329 331 336 338 338 338 345 349 354 356 350 354 354 344 330 311 307 306 305 317 318 319 318 318
352 350 349 349 348 346 346 346 346 347 347 347 347 347 348 349 348 347 338 328 329 331 333 335 343 345 349 353 355 350 352 355 344 330 310 306 306 312 318 318 318 318 317
348 348 349 351 350 347 347 346 347 347 347 347 348 348 348 348 348 348 344 330 329 330 333 338 343 345 349 352 354 350 352 354 345 330 309 307 307 315 317 318 318 318 318
343 341 345 352 348 346 347 347 347 347 348 348 348 348 348 349 348 348 347 339 331 332 335 340 343 344 348 351 353 350 351 354 345 328 310 307 308 313 315 317 317 318 318
341 344 342 341 352 352 348 345 347 348 349 348 349 349 349 349 348 347 348 347 343 340 339 341 344 344 347 351 352 350 351 355 346 325 311 308 308 312 314 314 317 318 318
341 343 345 343 345 347 353 350 346 347 347 348 349 348 348 349 349 348 348 347 348 347 347 346 344 346 346 350 352 352 352 355 345 325 312 309 307 310 312 313 315 318 318
340 342 344 346 346 346 348 353 349 347 348 348 349 344 345 346 347 347 347 347 348 348 348 347 345 347 345 350 352 354 350 355 345 329 315 310 308 310 311 312 313 317 318
339 341 344 346 346 341 341 346 355 349 348 349 349 348 347 347 346 345 345 347 348 349 350 350 348 347 347 351 353 354 349 353 346 333 319 312 309 310 311 311 312 316 317
338 339 340 339 339 339 342 348 354 351 348 348 349 348 348 348 348 348 347 347 348 349 350 350 350 348 348 351 353 354 351 353 349 340 325 316 310 310 311 312 312 312 317
337 339 340 342 342 340 345 344 346 350 347 348 348 348 347 348 347 348 348 348 348 350 351 350 349 349 348 351 354 353 352 353 351 343 330 319 310 310 311 312 312 311 316
336 337 337 340 342 339 337 338 337 342 348 349 351 349 348 347 349 348 348 349 349 349 350 349 348 349 349 352 354 353 353 352 350 339 332 321 311 310 311 312 313 311 314
333 336 337 339 341 341 342 343 345 346 345 345 343 342 350 353 353 353 352 351 350 352 354 350 345 346 349 353 353 353 356 354 349 339 331 323 313 311 310 313 313 312 311
329 335 336 339 340 342 342 342 345 340 336 334 336 339 335 347 348 346 354 357 352 354 353 351 351 347 342 344 351 350 352 354 351 346 336 327 316 311 309 312 314 312 311
325 332 334 337 340 341 340 343 342 345 338 334 334 334 334 335 346 340 348 353 351 351 352 353 353 355 356 352 350 353 351 352 349 348 340 330 319 311 309 312 313 312 311
Wind_Speed
24 22 23 22 21 21 21 18 15 16 16 17 17 15 13 10 8 4 4 4 7 8 10 11 11 13 14 17 20 21 20 15 15 12 7 5 6 8 11 12 8 7 8
23 26 25 25 24 23 21 21 18 16 17 17 17 16 14 13 10 7 5 5 5 8 9 10 12 14 16 17 18 18 18 15 12 11 8 4 5 6 7 9 7 5 4
25 25 28 27 25 25 24 23 20 16 15 15 17 17 17 16 13 10 8 7 5 6 8 11 13 15 15 15 17 17 16 14 13 10 7 5 5 5 4 3 3 4 2
26 26 31 31 30 27 25 25 22 18 16 15 17 17 17 16 15 12 10 6 7 6 8 10 13 12 10 12 16 16 13 12 12 9 7 5 6 4 3 4 3 5 5
27 29 33 32 31 29 26 26 25 20 17 17 16 16 17 16 15 12 9 7 6 5 4 7 11 14 12 13 15 13 11 10 9 8 5 4 5 5 3 5 5 8 9
28 29 33 33 30 29 29 29 28 23 19 18 18 17 17 17 16 13 10 8 5 3 5 9 12 12 13 14 13 11 12 9 10 8 7 4 2 4 4 5 6 8 10
28 30 32 36 35 32 30 31 30 26 23 20 19 18 17 19 18 15 12 9 6 5 7 10 11 10 14 13 12 10 12 9 9 8 7 5 4 5 5 5 6 7 8
29 30 34 36 36 33 31 31 33 30 26 23 20 19 18 21 21 18 16 12 9 8 8 10 9 9 13 12 11 10 11 9 10 9 8 7 6 6 6 5 5 7 7
29 32 32 36 36 33 33 31 34 33 30 27 22 20 20 21 23 20 19 16 14 11 9 9 6 10 11 11 10 8 9 10 10 9 8 8 7 8 8 8 6 4 8
25 27 29 33 36 36 33 31 32 34 31 29 26 21 19 21 21 22 20 18 17 14 11 9 9 10 10 10 11 9 7 9 10 9 8 8 7 9 9 8 7 6 5
24 25 26 27 32 32 35 34 33 36 35 32 29 26 22 19 21 21 21 18 17 16 14 11 10 8 11 9 10 9 7 8 9 9 8 7 7 9 9 9 8 7 6
17 22 22 22 24 26 28 32 32 33 35 34 31 28 24 21 20 22 21 20 17 15 15 14 13 11 11 9 8 8 9 6 9 8 7 6 7 9 10 11 10 10 10
5 12 16 20 23 26 26 27 28 29 31 35 35 32 29 25 23 22 22 21 20 18 17 17 14 11 9 8 5 7 9 6 7 7 6 5 7 8 10 10 11 13 13
12 8 7 11 17 21 23 24 26 28 28 29 33 34 30 28 25 22 22 22 21 20 18 16 14 11 9 8 4 6 8 5 4 5 4 5 6 7 10 11 14 15 16
14 12 7 6 9 18 22 21 22 24 26 27 29 31 31 28 26 23 21 22 22 21 18 16 15 13 10 9 5 6 9 4 3 3 2 4 6 7 9 11 14 16 16
13 9 7 4 7 12 17 20 22 19 21 23 26 27 30 30 28 25 21 21 22 22 20 18 16 14 12 9 5 5 8 5 3 0 2 4 6 7 8 10 13 15 18
11 10 6 5 2 4 11 21 21 19 20 22 22 22 26 29 28 26 23 21 20 21 21 20 18 16 13 9 8 6 7 7 3 2 3 4 7 7 6 9 11 14 16
10 9 6 2 3 2 3 10 21 20 20 21 20 17 20 25 28 28 26 24 22 22 21 21 20 17 15 10 9 7 7 10 5 4 4 4 6 6 6 7 10 12 14
8 7 4 1 2 2 1 3 15 22 23 23 20 14 16 20 24 26 26 25 25 24 23 21 21 19 15 12 10 9 8 11 8 6 5 4 5 6 6 7 8 10 12
8 8 4 1 2 2 2 2 8 20 21 23 22 19 18 20 23 23 23 24 25 24 24 23 21 19 16 13 13 13 11 11 9 9 7 7 6 7 7 7 7 8 10
10 9 10 10 6 1 1 4 5 15 23 27 22 21 16 17 19 20 21 22 23 24 24 23 23 20 17 15 15 14 11 9 8 9 9 7 6 8 7 6 7 7 9
18 16 12 13 11 5 8 14 14 6 5 19 17 18 18 16 18 20 22 23 22 22 23 24 25 22 19 17 17 13 11 10 8 7 9 8 7 10 9 5 6 7 9
17 18 19 15 15 15 8 5 8 7 9 7 3 6 12 12 16 20 23 25 26 25 25 25 26 24 22 20 19 16 14 13 12 10 9 8 9 10 9 7 5 7 8
15 17 18 19 19 17 14 13 9 8 9 3 15 16 13 4 9 16 19 25 27 27 26 28 24 24 23 23 23 24 21 18 17 15 14 11 10 10 9 8 5 5 7
12 14 17 18 19 20 17 14 11 6 11 12 1 18 23 16 12 26 20 21 27 27 27 27 24 22 24 25 25 19 21 20 18 15 16 16 14 12 11 10 8 6 6
7 12 12 13 15 19 22 21 15 12 11 8 19 22 21 22 30 33 33 31 29 26 25 21 19 17 14 14 22 18 16 15 17 15 16 16 15 14 13 12 10 9 7
Wind_Direction
201 208 215 220 219 215 213 208 203 197 200 203 206 213 218 224 230 256 331 330 337 330 356 3 4 359 352 351 347 348 349 352 356 4 349 323 312 356 2 17 20 33 36
202 209 217 220 223 224 218 216 213 211 214 213 215 219 222 227 226 237 272 299 322 328 329 346 343 337 335 337 339 341 339 347 352 355 343 318 311 329 353 6 10 49 20
202 209 216 221 224 227 222 221 217 215 220 223 226 227 229 233 230 241 261 274 297 320 336 342 340 333 323 325 331 341 344 349 354 351 339 333 338 310 327 344 16 22 10
210 212 218 224 227 230 231 227 223 220 220 221 228 234 233 227 224 242 261 256 277 298 329 338 347 352 345 331 330 339 349 359 1 352 342 329 318 323 289 315 316 295 281
212 213 216 225 230 233 232 224 223 221 221 221 225 230 230 227 231 235 244 244 258 306 322 341 345 350 356 343 336 352 1 13 12 10 359 344 344 340 305 305 295 281 276
213 216 221 223 228 234 234 222 219 220 220 222 224 229 226 223 222 223 227 229 248 277 300 326 334 344 352 346 344 0 9 13 16 17 19 17 354 324 326 307 288 275 289
213 212 218 222 226 229 234 225 219 219 218 221 226 225 227 218 218 226 230 233 246 269 300 322 338 348 351 350 350 3 8 15 16 16 15 10 350 330 319 310 291 286 277
219 216 217 222 225 228 232 231 223 220 218 220 226 225 223 222 219 230 236 239 245 269 296 325 332 347 347 355 350 4 13 25 17 14 16 9 358 4 6 342 314 310 297
216 218 215 220 223 224 228 229 228 223 221 221 221 227 224 225 225 228 235 244 250 266 288 315 325 339 342 352 350 349 8 25 15 14 15 8 14 23 18 16 10 328 321
222 218 215 220 225 226 225 226 228 228 226 223 223 225 230 227 230 232 237 242 254 260 273 299 309 323 336 343 349 341 350 21 13 15 17 12 17 18 15 16 12 358 332
223 217 217 217 225 225 223 225 229 230 226 227 227 226 227 232 229 232 239 241 247 253 264 277 299 309 325 325 341 339 347 2 8 11 19 17 21 19 19 25 21 8 2
221 216 213 210 208 215 218 223 226 231 231 229 229 229 229 230 233 228 232 237 240 246 257 272 285 282 301 302 328 326 319 359 10 7 17 19 28 23 33 34 34 35 26
168 190 193 199 205 218 224 226 227 229 232 232 229 229 231 230 234 232 224 230 235 241 253 269 274 274 281 282 302 314 328 324 4 358 18 33 38 39 44 47 48 41 40
77 110 151 195 215 228 228 226 228 227 227 228 229 228 228 230 232 237 228 223 230 238 246 256 258 265 267 273 275 300 314 303 341 357 25 55 55 63 57 57 56 50 53
60 61 89 154 201 215 225 235 236 236 231 226 222 224 225 227 229 233 231 221 223 229 235 242 251 258 260 265 246 280 300 271 332 6 56 78 77 73 66 63 60 56 57
38 51 69 112 197 217 224 228 233 237 231 230 225 220 221 223 224 226 229 221 219 224 228 235 243 252 255 260 233 270 298 260 301 348 125 113 100 87 68 61 58 56 52
29 27 31 55 84 237 239 232 228 230 230 226 219 219 219 220 221 223 225 221 219 224 230 234 238 245 249 249 220 245 275 250 270 201 149 140 121 102 78 63 60 51 48
29 24 14 1 57 47 318 249 217 216 214 223 215 216 221 219 220 222 225 224 223 227 232 236 236 236 244 241 216 232 256 245 229 200 163 146 130 120 100 68 61 50 43
27 13 327 306 103 85 14 280 221 216 212 215 208 200 215 211 214 220 225 225 225 227 230 235 234 232 239 232 212 221 238 244 228 203 181 156 142 132 112 83 60 55 41
47 40 28 89 138 13 307 307 240 220 215 222 216 203 216 221 216 217 221 224 229 232 233 235 233 231 232 223 212 210 224 240 226 209 194 176 158 144 120 96 69 56 44
56 57 53 60 40 56 33 22 251 215 216 215 207 196 210 219 229 228 225 228 229 231 231 234 233 228 225 219 211 206 218 241 231 222 205 188 166 152 134 104 80 62 54
57 49 42 51 43 50 114 85 77 79 226 223 222 201 201 216 224 224 227 231 230 228 227 227 228 222 219 211 210 203 213 221 214 218 207 193 177 161 146 130 86 67 61
60 50 41 40 49 56 76 264 353 40 84 67 41 223 211 229 240 234 229 230 228 227 225 226 224 218 216 210 203 204 212 212 199 203 210 195 179 171 163 148 111 87 71
55 47 43 42 42 43 50 43 35 71 47 26 0 355 333 275 284 277 244 228 228 220 220 222 222 218 217 213 212 206 209 201 198 193 203 197 187 178 171 164 137 116 95
61 48 38 36 36 35 34 33 30 54 101 55 277 308 330 303 300 325 278 240 225 223 222 228 229 223 220 223 224 219 213 213 211 204 196 193 193 189 178 171 160 159 122
46 65 49 43 37 24 15 21 23 19 46 64 20 353 322 272 273 303 303 244 227 223 224 227 236 240 230 229 223 211 211 216 220 216 202 198 191 191 182 175 164 165 155